Location: Emblem
(62.4273°N, 6.4710°E)
Time: 21:21:40
(UTC+02:00)

Vanguard 2 - Pass Details

Date: 14 February 2023
Orbit: 553 x 2927 km, 32.9° (Epoch: 27 March)

Event Time Altitude Azimuth Distance (km) Brightness Sun altitude
Rises 22:48:07 0° 235° (SW) 4,971 11.7 -36.0°
Enters shadow 22:53:06 - 214° (SW) 4,552 11.3 -36.4°
Reaches altitude 10° 22:54:05 10° 210° (SSW) 4,529 - -36.4°
Maximum altitude 22:58:36 13° 189° (S) 4,669 - -36.7°
Drops below altitude 10° 23:03:41 10° 169° (SSE) 5,220 - -37.0°
Sets 23:12:07 0° 146° (SE) 6,620 - -37.6°
